| time (UTC) | temp F | wind direction | speed MPH | gust MPH | rain 1hr in | rain 24hr in | rain mn in | humidity % | barometer mb |
| 20260502214505 | 64 | 216 | 2.0 | 6.0 | 0.00 | 0.00 | 0.00 | 33 | 1012.2 |
| 20260502214005 | 64 | 218 | 3.0 | 7.0 | 0.00 | 0.00 | 0.00 | 35 | 1012.3 |
| 20260502213505 | 64 | 242 | 3.0 | 8.0 | 0.00 | 0.00 | 0.00 | 32 | 1012.3 |
| 20260502213005 | 64 | 199 | 2.0 | 5.0 | 0.00 | 0.00 | 0.00 | 34 | 1012.3 |
| 20260502212506 | 63 | 223 | 2.0 | 5.0 | 0.00 | 0.00 | 0.00 | 34 | 1012.4 |
| 20260502212006 | 63 | 256 | 2.0 | 9.0 | 0.00 | 0.00 | 0.00 | 32 | 1012.5 |
| 20260502211006 | 63 | 211 | 2.0 | 8.0 | 0.00 | 0.00 | 0.00 | 35 | 1012.5 |
| 20260502210005 | 64 | 264 | 2.0 | 3.0 | 0.00 | 0.00 | 0.00 | 34 | 1012.7 |
| 20260502205505 | 63 | 294 | 1.0 | 3.0 | 0.00 | 0.00 | 0.00 | 34 | 1012.8 |
| 20260502205005 | 63 | 213 | 3.0 | 7.0 | 0.00 | 0.00 | 0.00 | 34 | 1013.0 |
| 20260502204505 | 63 | 158 | 2.0 | 7.0 | 0.00 | 0.00 | 0.00 | 32 | 1013.0 |
| 20260502203005 | 62 | 192 | 3.0 | 7.0 | 0.00 | 0.00 | 0.00 | 32 | 1013.1 |
| 20260502202005 | 62 | 305 | 3.0 | 12.0 | 0.00 | 0.00 | 0.00 | 32 | 1013.5 |
| 20260502201506 | 62 | 269 | 3.0 | 9.0 | 0.00 | 0.00 | 0.00 | 33 | 1013.6 |
| 20260502201005 | 62 | 288 | 3.0 | 10.0 | 0.00 | 0.00 | 0.00 | 32 | 1013.6 |
| 20260502200506 | 62 | 175 | 2.0 | 10.0 | 0.00 | 0.00 | 0.00 | 34 | 1013.7 |
| 20260502200005 | 62 | 163 | 3.0 | 7.0 | 0.00 | 0.00 | 0.00 | 34 | 1013.8 |
| 20260502195505 | 62 | 196 | 5.0 | 8.0 | 0.00 | 0.00 | 0.00 | 32 | 1014.1 |
| 20260502195005 | 61 | 261 | 2.0 | 3.0 | 0.00 | 0.00 | 0.00 | 35 | 1014.0 |
| 20260502194505 | 61 | 165 | 2.0 | 3.0 | 0.00 | 0.00 | 0.00 | 34 | 1014.1 |
| 20260502194005 | 62 | 288 | 2.0 | 8.0 | 0.00 | 0.00 | 0.00 | 32 | 1014.2 |
| 20260502193505 | 62 | 252 | 2.0 | 10.0 | 0.00 | 0.00 | 0.00 | 32 | 1014.3 |
| 20260502193005 | 62 | 175 | 7.0 | 12.0 | 0.00 | 0.00 | 0.00 | 31 | 1014.3 |
| 20260502192506 | 61 | 186 | 3.0 | 8.0 | 0.00 | 0.00 | 0.00 | 34 | 1014.5 |
| 20260502191505 | 61 | 177 | 5.0 | 12.0 | 0.00 | 0.00 | 0.00 | 34 | 1014.7 |
| 20260502190506 | 61 | 176 | 5.0 | 12.0 | 0.00 | 0.00 | 0.00 | 34 | 1014.8 |
| 20260502190005 | 61 | 178 | 4.0 | 12.0 | 0.00 | 0.00 | 0.00 | 34 | 1014.8 |
| 20260502185505 | 61 | 184 | 3.0 | 12.0 | 0.00 | 0.00 | 0.00 | 37 | 1015.0 |
| 20260502185005 | 61 | 276 | 2.0 | 8.0 | 0.00 | 0.00 | 0.00 | 35 | 1015.0 |
| 20260502184505 | 61 | 169 | 3.0 | 8.0 | 0.00 | 0.00 | 0.00 | 34 | 1015.2 |
| 20260502184005 | 61 | 176 | 6.0 | 16.0 | 0.00 | 0.00 | 0.00 | 35 | 1015.2 |
| 20260502183505 | 61 | 161 | 3.0 | 9.0 | 0.00 | 0.00 | 0.00 | 34 | 1015.4 |
| 20260502183005 | 60 | 194 | 3.0 | 9.0 | 0.00 | 0.00 | 0.00 | 34 | 1015.5 |
| 20260502182505 | 60 | 191 | 4.0 | 9.0 | 0.00 | 0.00 | 0.00 | 37 | 1015.6 |
| 20260502182006 | 60 | 186 | 4.0 | 10.0 | 0.00 | 0.00 | 0.00 | 34 | 1015.6 |
| 20260502181505 | 60 | 182 | 5.0 | 12.0 | 0.00 | 0.00 | 0.00 | 36 | 1015.7 |
| 20260502181009 | 60 | 201 | 3.0 | 7.0 | 0.00 | 0.00 | 0.00 | 36 | 1015.7 |
| 20260502180505 | 60 | 185 | 3.0 | 8.0 | 0.00 | 0.00 | 0.00 | 34 | 1015.8 |
| 20260502170505 | 57 | 302 | 2.0 | 8.0 | 0.00 | 0.00 | 0.00 | 36 | 1016.7 |
| 20260502164005 | 56 | 202 | 3.0 | 14.0 | 0.00 | 0.00 | 0.00 | 38 | 1017.0 |
| 20260502163505 | 57 | 293 | 2.0 | 5.0 | 0.00 | 0.00 | 0.00 | 39 | 1017.0 |
| 20260502163006 | 57 | 219 | 3.0 | 10.0 | 0.00 | 0.00 | 0.00 | 37 | 1017.1 |
| 20260502162005 | 57 | 257 | 2.0 | 5.0 | 0.00 | 0.00 | 0.00 | 40 | 1017.1 |
| 20260502161505 | 56 | 264 | 2.0 | 5.0 | 0.00 | 0.00 | 0.00 | 39 | 1017.2 |
| 20260502161005 | 56 | 308 | 3.0 | 8.0 | 0.00 | 0.00 | 0.00 | 40 | 1017.2 |
| 20260502160505 | 56 | 186 | 2.0 | 6.0 | 0.00 | 0.00 | 0.00 | 41 | 1017.2 |
| 20260502151505 | 55 | 299 | 2.0 | 8.0 | 0.00 | 0.00 | 0.00 | 42 | 1017.5 |
| 20260502151005 | 55 | 296 | 3.0 | 8.0 | 0.00 | 0.00 | 0.00 | 43 | 1017.6 |
| 20260502150505 | 55 | 280 | 2.0 | 6.0 | 0.00 | 0.00 | 0.00 | 42 | 1017.6 |
| 20260502130505 | 46 | 167 | 2.0 | 5.0 | 0.00 | 0.00 | 0.00 | 58 | 1018.0 |
| 20260502123506 | 42 | 203 | 2.0 | 3.0 | 0.00 | 0.00 | 0.00 | 61 | 1018.0 |
| 20260502123006 | 42 | 269 | 2.0 | 6.0 | 0.00 | 0.00 | 0.00 | 62 | 1018.0 |
| 20260502122505 | 41 | 204 | 1.0 | 6.0 | 0.00 | 0.00 | 0.00 | 63 | 1018.0 |
| 20260502122005 | 41 | 158 | 1.0 | 3.0 | 0.00 | 0.00 | 0.00 | 62 | 1018.0 |
| 20260502121005 | 40 | 278 | 0.0 | 3.0 | 0.00 | 0.00 | 0.00 | 63 | 1018.0 |
| 20260502120505 | 40 | 278 | 1.0 | 3.0 | 0.00 | 0.00 | 0.00 | 64 | 1017.9 |
| 20260502115506 | 39 | 278 | 1.0 | 2.0 | 0.00 | 0.00 | 0.00 | 64 | 1017.9 |
| 20260502113505 | 38 | 278 | 1.0 | 3.0 | 0.00 | 0.00 | 0.00 | 65 | 1017.8 |
| 20260502113005 | 38 | 278 | 0.0 | 2.0 | 0.00 | 0.00 | 0.00 | 66 | 1017.8 |
| 20260502112505 | 38 | 278 | 1.0 | 2.0 | 0.00 | 0.00 | 0.00 | 67 | 1017.8 |
| 20260502112005 | 38 | 278 | 0.0 | 2.0 | 0.00 | 0.00 | 0.00 | 68 | 1017.8 |
| 20260502111505 | 37 | 278 | 0.0 | 2.0 | 0.00 | 0.00 | 0.00 | 69 | 1017.8 |
| 20260502110005 | 37 | 278 | 0.0 | 1.0 | 0.00 | 0.00 | 0.00 | 71 | 1017.8 |
| 20260502105505 | 36 | 278 | 0.0 | 1.0 | 0.00 | 0.00 | 0.00 | 72 | 1017.7 |
| 20260502104005 | 35 | 355 | 0.0 | 0.0 | 0.00 | 0.00 | 0.00 | 76 | 1017.8 |
| 20260502102505 | 34 | 355 | 0.0 | 0.0 | 0.00 | 0.00 | 0.00 | 78 | 1017.8 |
| 20260502102005 | 34 | 355 | 0.0 | 0.0 | 0.00 | 0.00 | 0.00 | 78 | 1017.7 |
| 20260502101505 | 34 | 355 | 0.0 | 0.0 | 0.00 | 0.00 | 0.00 | 80 | 1017.8 |
| 20260502101005 | 34 | 355 | 0.0 | 0.0 | 0.00 | 0.00 | 0.00 | 79 | 1017.7 |
| 20260502100506 | 34 | 355 | 0.0 | 0.0 | 0.00 | 0.00 | 0.00 | 78 | 1017.7 |
| 20260502091006 | 33 | 355 | 0.0 | 0.0 | 0.00 | 0.00 | 0.00 | 83 | 1017.9 |
| 20260502090507 | 33 | 355 | 0.0 | 0.0 | 0.00 | 0.00 | 0.00 | 83 | 1017.8 |
| 20260502071506 | 35 | 355 | 0.0 | 0.0 | 0.00 | 0.00 | 0.00 | 78 | 1017.8 |
| 20260502071006 | 35 | 355 | 0.0 | 0.0 | 0.00 | 0.00 | 0.00 | 79 | 1017.8 |
| 20260502070506 | 35 | 355 | 0.0 | 0.0 | 0.00 | 0.00 | 0.00 | 79 | 1017.8 |
| 20260502070007 | 35 | 355 | 0.0 | 0.0 | 0.00 | 0.00 | 0.00 | 78 | 1017.9 |
| 20260502065506 | 35 | 355 | 0.0 | 0.0 | 0.00 | 0.00 | 0.00 | 77 | 1017.9 |
| 20260502065006 | 35 | 355 | 0.0 | 0.0 | 0.00 | 0.00 | 0.00 | 77 | 1018.0 |
| 20260502064507 | 35 | 355 | 0.0 | 0.0 | 0.00 | 0.00 | 0.00 | 77 | 1018.0 |
| 20260502063507 | 35 | 355 | 0.0 | 0.0 | 0.00 | 0.00 | 0.00 | 78 | 1018.0 |
| 20260502063007 | 36 | 355 | 0.0 | 0.0 | 0.00 | 0.00 | 0.00 | 77 | 1018.0 |
| 20260502062506 | 36 | 355 | 0.0 | 0.0 | 0.00 | 0.00 | 0.00 | 77 | 1018.0 |
| 20260502062006 | 35 | 355 | 0.0 | 0.0 | 0.00 | 0.00 | 0.00 | 75 | 1018.0 |
| 20260502061506 | 36 | 355 | 0.0 | 0.0 | 0.00 | 0.00 | 0.00 | 75 | 1018.0 |
| 20260502061006 | 36 | 355 | 0.0 | 0.0 | 0.00 | 0.00 | 0.00 | 76 | 1018.1 |
| 20260502060507 | 36 | 355 | 0.0 | 0.0 | 0.00 | 0.00 | 0.00 | 75 | 1018.1 |
| 20260502060006 | 36 | 355 | 0.0 | 0.0 | 0.00 | 0.00 | 0.00 | 71 | 1018.0 |
| 20260502055506 | 36 | 355 | 0.0 | 0.0 | 0.00 | 0.00 | 0.00 | 72 | 1017.9 |
| 20260502055006 | 36 | 355 | 0.0 | 0.0 | 0.00 | 0.00 | 0.00 | 72 | 1018.0 |
| 20260502054506 | 36 | 355 | 0.0 | 0.0 | 0.00 | 0.00 | 0.00 | 73 | 1018.0 |
| 20260502054006 | 36 | 355 | 0.0 | 0.0 | 0.00 | 0.00 | 0.00 | 70 | 1017.9 |
| 20260502053506 | 36 | 355 | 0.0 | 0.0 | 0.00 | 0.00 | 0.00 | 69 | 1017.9 |
| 20260502052506 | 37 | 355 | 0.0 | 0.0 | 0.00 | 0.00 | 0.00 | 69 | 1017.9 |
| 20260502052007 | 37 | 355 | 0.0 | 0.0 | 0.00 | 0.00 | 0.00 | 68 | 1017.9 |
| 20260502051506 | 37 | 355 | 0.0 | 0.0 | 0.00 | 0.00 | 0.00 | 68 | 1017.9 |
| 20260502051006 | 37 | 355 | 0.0 | 0.0 | 0.00 | 0.00 | 0.00 | 64 | 1017.9 |
| 20260502050506 | 37 | 355 | 0.0 | 0.0 | 0.00 | 0.00 | 0.00 | 63 | 1017.9 |
| 20260502050006 | 37 | 355 | 0.0 | 0.0 | 0.00 | 0.00 | 0.00 | 62 | 1017.9 |
| 20260502045506 | 37 | 355 | 0.0 | 0.0 | 0.00 | 0.00 | 0.00 | 62 | 1017.8 |
| 20260502045006 | 37 | 355 | 0.0 | 0.0 | 0.00 | 0.00 | 0.00 | 62 | 1017.8 |
| 20260502044506 | 38 | 355 | 0.0 | 0.0 | 0.00 | 0.00 | 0.00 | 61 | 1017.8 |
| 20260502044007 | 38 | 355 | 0.0 | 0.0 | 0.00 | 0.00 | 0.00 | 61 | 1017.9 |
| 20260502043507 | 38 | 355 | 0.0 | 0.0 | 0.00 | 0.00 | 0.00 | 61 | 1017.9 |
| 20260502042506 | 38 | 355 | 0.0 | 0.0 | 0.00 | 0.00 | 0.00 | 61 | 1017.9 |
| 20260502042006 | 38 | 355 | 0.0 | 0.0 | 0.00 | 0.00 | 0.00 | 60 | 1017.8 |
| 20260502041506 | 38 | 355 | 0.0 | 0.0 | 0.00 | 0.00 | 0.00 | 60 | 1017.8 |
| 20260502041006 | 38 | 355 | 0.0 | 0.0 | 0.00 | 0.00 | 0.00 | 60 | 1017.8 |
| 20260502040506 | 38 | 355 | 0.0 | 0.0 | 0.00 | 0.00 | 0.00 | 60 | 1017.8 |
| 20260502040006 | 38 | 355 | 0.0 | 0.0 | 0.00 | 0.00 | 0.00 | 60 | 1017.8 |
| 20260502035506 | 39 | 355 | 0.0 | 0.0 | 0.00 | 0.00 | 0.00 | 60 | 1017.8 |
| 20260502035006 | 39 | 355 | 0.0 | 0.0 | 0.00 | 0.00 | 0.00 | 60 | 1017.8 |
| 20260502034006 | 39 | 355 | 0.0 | 0.0 | 0.00 | 0.00 | 0.00 | 59 | 1017.8 |
| 20260502033506 | 39 | 355 | 0.0 | 0.0 | 0.00 | 0.00 | 0.00 | 59 | 1017.8 |
| 20260502033006 | 40 | 355 | 0.0 | 0.0 | 0.00 | 0.00 | 0.00 | 59 | 1017.8 |
| 20260502032506 | 40 | 355 | 0.0 | 0.0 | 0.00 | 0.00 | 0.00 | 59 | 1017.8 |
| 20260502031506 | 40 | 355 | 0.0 | 0.0 | 0.00 | 0.00 | 0.00 | 57 | 1017.8 |
| 20260502031007 | 40 | 355 | 0.0 | 0.0 | 0.00 | 0.00 | 0.00 | 57 | 1017.8 |
| 20260502030506 | 41 | 355 | 0.0 | 0.0 | 0.00 | 0.00 | 0.00 | 56 | 1017.8 |
| 20260502030007 | 41 | 355 | 0.0 | 0.0 | 0.00 | 0.00 | 0.00 | 55 | 1017.8 |
| 20260502025506 | 41 | 355 | 0.0 | 0.0 | 0.00 | 0.00 | 0.00 | 54 | 1017.7 |
| 20260502024507 | 42 | 355 | 0.0 | 0.0 | 0.00 | 0.00 | 0.00 | 53 | 1017.7 |
| 20260502024007 | 42 | 355 | 0.0 | 0.0 | 0.00 | 0.00 | 0.00 | 52 | 1017.7 |
| 20260502022506 | 43 | 355 | 0.0 | 0.0 | 0.00 | 0.00 | 0.00 | 52 | 1017.7 |
| 20260502022007 | 43 | 355 | 0.0 | 0.0 | 0.00 | 0.00 | 0.00 | 51 | 1017.7 |
| 20260502021506 | 44 | 355 | 0.0 | 0.0 | 0.00 | 0.00 | 0.00 | 50 | 1017.6 |
| 20260502021006 | 44 | 355 | 0.0 | 0.0 | 0.00 | 0.00 | 0.00 | 51 | 1017.6 |
| 20260502020506 | 44 | 355 | 0.0 | 0.0 | 0.00 | 0.00 | 0.00 | 50 | 1017.6 |
| 20260502020006 | 45 | 355 | 0.0 | 0.0 | 0.00 | 0.00 | 0.00 | 50 | 1017.6 |
| 20260502015506 | 45 | 355 | 0.0 | 0.0 | 0.00 | 0.00 | 0.00 | 50 | 1017.5 |
| 20260502015007 | 45 | 355 | 0.0 | 0.0 | 0.00 | 0.00 | 0.00 | 51 | 1017.5 |
| 20260502013506 | 46 | 355 | 0.0 | 0.0 | 0.00 | 0.00 | 0.00 | 49 | 1017.2 |
| 20260502013006 | 47 | 355 | 0.0 | 0.0 | 0.00 | 0.00 | 0.00 | 50 | 1017.2 |
| 20260502012506 | 47 | 355 | 0.0 | 0.0 | 0.00 | 0.00 | 0.00 | 51 | 1017.2 |
| 20260502012006 | 48 | 355 | 0.0 | 0.0 | 0.00 | 0.00 | 0.00 | 52 | 1017.2 |
| 20260502011506 | 48 | 355 | 0.0 | 0.0 | 0.00 | 0.00 | 0.00 | 48 | 1017.2 |
| 20260502011006 | 48 | 355 | 0.0 | 0.0 | 0.00 | 0.00 | 0.00 | 46 | 1017.2 |
| 20260502010506 | 48 | 355 | 0.0 | 1.0 | 0.00 | 0.00 | 0.00 | 46 | 1017.2 |
| 20260502010006 | 49 | 355 | 0.0 | 1.0 | 0.00 | 0.00 | 0.00 | 43 | 1017.1 |
| 20260502005506 | 49 | 355 | 0.0 | 1.0 | 0.00 | 0.00 | 0.00 | 43 | 1017.1 |
| 20260502004506 | 49 | 322 | 1.0 | 3.0 | 0.00 | 0.00 | 0.00 | 43 | 1016.9 |
| 20260502004006 | 49 | 327 | 0.0 | 2.0 | 0.00 | 0.00 | 0.00 | 43 | 1016.9 |
| 20260502003007 | 49 | 13 | 0.0 | 2.0 | 0.00 | 0.00 | 0.00 | 44 | 1016.9 |
| 20260502002506 | 50 | 13 | 1.0 | 2.0 | 0.00 | 0.00 | 0.00 | 43 | 1016.8 |
| 20260502002006 | 50 | 13 | 0.0 | 2.0 | 0.00 | 0.00 | 0.00 | 41 | 1016.8 |
| 20260502001505 | 50 | 13 | 0.0 | 2.0 | 0.00 | 0.00 | 0.00 | 43 | 1016.8 |
| 20260502001006 | 49 | 13 | 1.0 | 3.0 | 0.00 | 0.00 | 0.00 | 40 | 1016.7 |
| 20260502000007 | 49 | 5 | 1.0 | 2.0 | 0.00 | 0.00 | 0.00 | 41 | 1016.8 |
| 20260501235506 | 49 | 5 | 1.0 | 2.0 | 0.00 | 0.00 | 0.00 | 41 | 1016.7 |
| 20260501235006 | 49 | 5 | 1.0 | 2.0 | 0.00 | 0.00 | 0.00 | 42 | 1016.7 |
| 20260501234506 | 49 | 5 | 1.0 | 2.0 | 0.00 | 0.00 | 0.00 | 42 | 1016.7 |
| 20260501234006 | 50 | 5 | 0.0 | 2.0 | 0.00 | 0.00 | 0.00 | 42 | 1016.7 |
| 20260501233506 | 50 | 5 | 1.0 | 5.0 | 0.00 | 0.00 | 0.00 | 40 | 1016.7 |
| 20260501232506 | 51 | 5 | 1.0 | 5.0 | 0.00 | 0.00 | 0.00 | 40 | 1016.6 |
| 20260501232007 | 51 | 324 | 2.0 | 5.0 | 0.00 | 0.00 | 0.00 | 40 | 1016.7 |
| 20260501231506 | 51 | 320 | 1.0 | 3.0 | 0.00 | 0.00 | 0.00 | 41 | 1016.7 |
| 20260501231006 | 51 | 273 | 2.0 | 3.0 | 0.00 | 0.00 | 0.00 | 41 | 1016.6 |
| 20260501230506 | 51 | 301 | 1.0 | 2.0 | 0.00 | 0.00 | 0.00 | 40 | 1016.6 |
| 20260501225506 | 50 | 291 | 2.0 | 3.0 | 0.00 | 0.00 | 0.00 | 40 | 1016.7 |
| 20260501225006 | 50 | 284 | 1.0 | 3.0 | 0.00 | 0.00 | 0.00 | 42 | 1016.6 |
| 20260501224506 | 51 | 284 | 1.0 | 3.0 | 0.00 | 0.00 | 0.00 | 40 | 1016.6 |
| 20260501224006 | 51 | 284 | 2.0 | 3.0 | 0.00 | 0.00 | 0.00 | 40 | 1016.6 |
| 20260501223506 | 50 | 355 | 0.0 | 2.0 | 0.00 | 0.00 | 0.00 | 39 | 1016.6 |
| 20260501223007 | 50 | 355 | 2.0 | 3.0 | 0.00 | 0.00 | 0.00 | 39 | 1016.6 |
| 20260501222506 | 50 | 326 | 1.0 | 2.0 | 0.00 | 0.00 | 0.00 | 40 | 1016.5 |
| 20260501221505 | 51 | 7 | 2.0 | 7.0 | 0.00 | 0.00 | 0.00 | 37 | 1016.5 |
| 20260501221006 | 51 | 318 | 2.0 | 7.0 | 0.00 | 0.00 | 0.00 | 38 | 1016.6 |
| 20260501220506 | 52 | 343 | 3.0 | 8.0 | 0.00 | 0.00 | 0.00 | 37 | 1016.5 |
| 20260501215506 | 52 | 313 | 2.0 | 12.0 | 0.00 | 0.00 | 0.00 | 39 | 1016.5 |